www.pogodaiklimat.ru

Погода и климат >> Архив погоды >> Малайзия >> Сибу


ПОГОДА в Сибу

  • Прогноз погоды в Сибу
  • Монитор погоды в Сибу

АРХИВ ПОГОДЫ в Сибу

Время (UTC), дата Ветер
(напр.,м/с)
 
Видим.   Явления Облачность Т
(С)
Тd
(С)
f
(%)
Тe
(С)
Тes
(С)
Комфортность P
(гПа)
Po
(гПа)
Тmin
(С)
Tmax
(С)
R
(мм)
R24
(мм)
S
(см)
15 14.07 штиль 0 18 км 9/3 540 м
[Sc Ac trans Ci fib]
+25.7 +23.7 89 +35 +35 очень
душно
1009.6 1006.0
18 14.07 штиль 0 18 км 9/3 540 м
[Sc Ac trans Ci fib]
+24.0 +23.1 95 +32 +32 очень
душно
1008.9 1005.3
21 14.07 Ю 1 6000 м дымка 9/5 60 м
[Sc Ac trans Ci fib]
+23.4 +23.4 100 +33 +33 очень
душно
1008.2 1004.6
00 15.07 ЮВ 2 25 км 9/4 <50 м
[Sc Ac trans Ci fib]
+24.5 +23.2 92 +33 +34 очень
душно
1009.6 1006.0 +23.2
03 15.07 Ю 2 30 км 9/3 480 м
[Cu hum Ac trans Ci fib]
+29.9 +23.1 67 +40 +47 очень
душно
1009.6 1006.0
06 15.07 З 4 30 км 9/4 540 м
[Cu med, cong Ac trans Ci fib]
+33.0 +21.7 52 +41 +46 опасность
перегрева
1008.0 1004.4
09 15.07 ЮЗ 3 30 км 9/4 540 м
[Cu med, cong Ac trans Ci fib]
+31.6 +21.5 55 +40 +41 очень
душно
1006.6 1003.0
12 15.07 ЮЗ 1 15 км 9/3 540 м
[Sc Ac trans Ci fib]
+27.3 +23.0 77 +36 +36 очень
душно
1008.4 1004.8 +33.5
15 15.07 ЮВ 2 15 км 9/4 540 м
[Sc Ac trans Ci fib]
+25.5 +22.8 85 +34 +34 очень
душно
1009.8 1006.2
18 15.07 ЮВ 1 15 км 9/4 540 м
[Sc Ac trans Ci fib]
+24.8 +23.1 90 +33 +33 очень
душно
1009.0 1005.4
21 15.07 ЮВ 1 15 км 9/4 540 м
[Sc Ac trans Ci fib]
+23.8 +22.3 91 +31 +31 очень
душно
1008.8 1005.2
00 16.07 ЮВ 2 28 км 9/4 <50 м
[Sc Ac trans Ci fib]
+24.3 +22.1 88 +32 +33 очень
душно
1009.6 1006.0 +23.0
03 16.07 Ю 3 30 км 9/1 540 м
[Cu hum Ac trans Ci fib]
+29.5 +22.0 64 +38 +46 очень
душно
1009.5 1005.9
06 16.07 ЮЗ 4 30 км 9/3 540 м
[Cu hum Ac trans Ci fib]
+31.9 +22.5 58 +42 +47 опасность
перегрева
1007.3 1003.7
09 16.07 ЮЗ 3 30 км 9 баллов +32.0 +18.8 46 +37 +37 очень
душно
1005.9 1002.3
12 16.07 Ю 1 18 км 9/3 540 м
[Sc Ac lent Ci fib]
+27.7 +22.1 72 +36 +36 очень
душно
1006.8 1003.2 +32.7
15 16.07 штиль 0 18 км 9/3 540 м
[Sc Ac trans Ci fib]
+24.5 +22.9 91 +32 +32 очень
душно
1008.8 1005.2
18 16.07 Ю 1 18 км 9/4 150 м
[Sc Ac trans Ci fib]
+22.9 +22.2 96 +31 +31 очень
душно
1008.1 1004.5
21 16.07 Ю 1 18 км 9/4 150 м
[Sc Ac trans Ci fib]
+22.6 +22.1 97 +30 +30 очень
душно
1007.6 1004.0
00 17.07 Ю 1 28 км 9/1 50 м
[Cu hum Ac lent Ci fib]
+24.9 +22.8 88 +33 +35 очень
душно
1009.0 1005.4 +22.1
03 17.07 ЮВ 3 30 км 8/1 540 м
[Cu hum Ac trans Ci fib]
+29.8 +22.4 65 +39 +47 очень
душно
1008.6 1005.0
06 17.07 Ю 2 30 км 8/3 540 м
[Cu hum Ac trans Ci fib]
+32.4 +22.8 57 +42 +50 опасность
перегрева
1006.5 1002.9
09 17.07 Ю 2 30 км 8/3 540 м
[Cu hum Ac trans Ci fib]
+33.0 +21.4 51 +41 +42 опасность
перегрева
1005.2 1001.6
12 17.07 штиль 0 18 км 9/3 540 м
[Cu hum Ac trans Ci fib]
+27.4 +24.3 83 +38 +38 очень
душно
1006.8 1003.2 +33.6
15 17.07 штиль 0 18 км 9/4 540 м
[Sc Ac trans Ci fib]
+25.5 +23.2 87 +34 +34 очень
душно
1008.3 1004.7
18 17.07 штиль 0 18 км 9/4 540 м
[Cu hum Ac trans Ci fib]
+24.0 +22.9 94 +32 +32 очень
душно
1007.8 1004.2
21 17.07 ЮВ 2 18 км 9/4 150 м
[St Ac trans Ci fib]
+23.6 +22.4 93 +31 +31 очень
душно
1007.1 1003.5
00 18.07 ЮВ 2 28 км 9/3 2000 м
[Cu hum Ac trans Ci fib]
+25.0 +22.6 87 +33 +34 очень
душно
1007.8 1004.2 +23.4
03 18.07 В 3 30 км 9/3 480 м
[Cu hum Ac trans Ci fib]
+30.1 +22.9 65 +40 +46 очень
душно
1007.8 1004.2
06 18.07 ЮВ 2 30 км 9/3 540 м
[Cu hum Ac trans Ci fib]
+31.8 +23.0 60 +42 +50 опасность
перегрева
1005.9 1002.3
09 18.07 ЮВ 2 30 км 9/3 540 м
[Cu hum Ac trans Ci fib]
+32.8 +22.0 53 +41 +43 опасность
перегрева
1005.2 1001.6
12 18.07 штиль 0 18 км 9/3 540 м
[Sc Ac lent Ci fib]
+27.7 +24.3 82 +39 +39 очень
душно
1007.0 1003.4 +33.4
15 18.07 штиль 0 18 км 9/3 540 м
[Sc Ac trans Ci fib]
+25.0 +24.0 94 +34 +34 очень
душно
1008.6 1005.0
18 18.07 штиль 0 18 км 9/4 480 м
[Sc Ac trans Ci fib]
+24.4 +23.6 95 +33 +33 очень
душно
1007.5 1003.9
21 18.07 штиль 0 18 км 9/5 150 м
[Sc Ac trans Ci fib]
+24.5 +23.8 96 +33 +33 очень
душно
1007.1 1003.5
00 19.07 ЮВ 2 12 км дымка 9/4 <50 м
[Sc Ac trans Ci fib]
+25.2 +24.6 96 +35 +36 очень
душно
1008.3 1004.7 +24.2
03 19.07 ЮВ 1 25 км 9/4 480 м
[Cu med, cong Ac trans Ci fib]
+29.7 +25.5 78 +44 +51 опасность
перегрева
1008.8 1005.2
06 19.07 В 3 30 км 9/5 540 м
[Cu med, cong Ac trans Ci fib]
+32.8 +23.9 60 +45 +49 опасность
перегрева
1006.9 1003.3
09 19.07 В 2 30 км 9/5 450 м
[Cu med, cong Ac trans Ci fib]
+32.2 +24.6 64 +45 +46 опасность
перегрева
1005.9 1002.4
12 19.07 С 2 15 км 9/4 540 м
[Sc Ac trans Ci fib]
+28.2 +25.4 85 +41 +41 опасность
перегрева
1007.5 1003.9 +33.6
15 19.07 С 2 15 км 9/4 540 м
[Sc Ac trans Ci fib]
+26.3 +25.1 93 +38 +38 очень
душно
1009.0 1005.4
18 19.07 штиль 0 15 км 9/4 540 м
[Sc Ac trans Ci fib]
+25.4 +24.9 97 +36 +36 очень
душно
1008.6 1005.0
21 19.07 штиль 0 15 км 9/5 150 м
[Sc Ac trans Ci fib]
+25.2 +24.7 97 +35 +35 очень
душно
1008.5 1004.9
00 20.07 Ю 1 8000 м мгла 9/6 540 м
[Sc Ac trans Ci fib]
+26.4 +25.5 95 +39 +40 очень
душно
1009.8 1006.2 +24.6
03 20.07 СВ 2 15 км мгла 9/5 540 м
[Cu hum Ac lent Ci fib]
+30.9 +25.4 73 +45 +50 опасность
перегрева
1009.6 1006.0
06 20.07 В 2 30 км 9/5 540 м
[Cu hum Ac lent Ci fib]
+33.3 +25.0 62 +47 +52 опасность
перегрева
1006.4 1002.9
09 20.07 С 3 20 км осадки на расстоянии 9/4 450 м
[Cb cap Ac lent Ci fib]
+31.2 +26.2 75 +47 +48 опасность
перегрева
1005.4 1001.9
12 20.07 З 1 18 км 9/4 540 м
[Sc Ac trans Ci fib]
+26.0 +23.5 86 +35 +35 очень
душно
1007.4 1003.8 +34.6
15 20.07 штиль 0 18 км 9/3 540 м
[Sc Ac trans Ci fib]
+25.2 +23.9 93 +35 +35 очень
душно
1008.7 1005.1
18 20.07 С 2 18 км 9/4 540 м
[Sc Ac trans Ci fib]
+24.4 +23.6 95 +33 +33 очень
душно
1007.5 1003.9
21 20.07 штиль 0 18 км 9/5 210 м
[Sc Ac trans Ci fib]
+24.7 +24.0 96 +34 +34 очень
душно
1007.6 1004.0
00 21.07 В 2 25 км в посл. час гроза 9/5 480 м
[Sc Ac As]
+24.2 +23.9 98 +33 +34 очень
душно
1009.5 1005.9 +23.9 25
03 21.07 ЮВ 2 8000 м слаб. дождь 9/6 210 м
[Sc Ac As]
+24.9 +24.1 95 +34 +38 очень
душно
1009.9 1006.3
06 21.07 З 3 30 км 9/5 480 м
[Cu hum Ac trans Ci fib]
+29.7 +25.8 80 +44 +49 опасность
перегрева
1007.4 1003.9 5
09 21.07 штиль 0 18 км в посл. час гроза {дождь} 9/5 480 м
[Sc Ac As]
+24.9 +24.8 99 +35 +36 очень
душно
1006.8 1003.2
12 21.07 Ю 2 18 км {гроза, ливн. осадки} 9/6 150 м
[Sc Ac As]
+24.1 +23.8 98 +33 +33 очень
душно
1008.6 1005.0 +30.7 22

 

Местоположение метеостанции Сибу (Малайзия): широта 2.33 долгота 111.83 высота над уровнем моря 31 м.

В архиве по умолчанию представлена погода в Сибу за последнюю неделю. Архивные данные за месяц целиком и за предыдущие месяцы, начиная с января 2011 года, Вы можете получить, выбрав интересующий диапазон дат из раскрывающегося списка и нажав кнопку "Ввод!".


*Определитесь, кто Вы:
робот инопланетянин человек

Внимание! Время в таблицах - всемирное. Для получения местного времени необходимо прибавить поправку, которая равна 8 ч.

Смотрите также архив погоды в соседних городах и на ближайших метеорологических станциях:

Погода в Бинталу (Малайзия) (165 км)
Погода в Кучинге (Малайзия) (192 км)
Погода на Путусиббау (Индонезия) (207 км)
Погода в Синтанге (Индонезия) (248 км)
Погода в Парохе (Индонезия) (288 км)
Погода в Нангапинохе (Индонезия) (298 км)
Погода в Мири (Малайзия) (326 км)
Погода в Понтианаке (Индонезия) (386 км)
Погода в Ранаи (Индонезия) (423 км)
Погода в Паоанкарая (Индонезия) (442 км)

Пояснения к столбцам:

Ветер - указаны скорость ветра в м/с - средняя за 10 мин, порывы в срок и между сроками (в фигурных скобках) и направление, откуда дует ветер: С - северный, СВ - северо-восточный, В - восточный, ЮВ - юго-восточный, Ю - южный, ЮЗ - юго-западный, З - западный, СЗ - северо-западный.
Видимость - горизонтальная дальность видимости в метрах или километрах. При видимости от 1 до 10 км при отсутствии осадков обычно наблюдается дымка, при ухудшении видимости до 1 км и менее - туман. В сухую погоду видимость может ухудшаться дымом, пылью или мглою.
Явления - указаны атмосферные явления, наблюдавшиеся в срок или в последний час перед сроком; фигурными скобками обозначены явления, наблюдавшиеся между сроками (за 1-3 часа до срока); квадратными скобками обозначены град или гололедные отложения с указанием их диаметра в мм.
Облачность - указаны через наклонную черту общая и нижняя облачность в баллах и высота нижней границы облаков в метрах; квадратными скобками обозначены формы облаков: Ci - перистые, Cs - перисто-слоистые, Cc - перисто-кучевые, Ac - высококучевые, As - высокослоистые, Sc - слоисто-кучевые, Ns - слоисто-дождевые, Cu - кучевые, Cb - кучево-дождевые. Подробнее классификацию облаков см. в Атласе облаков (PDF).
T - Температура воздуха - температура, измеренная на высоте 2 м над землей.
Td - Температура точки росы - температура, при понижении до которой содержащийся в воздухе водяной пар достигнет насыщения.
f - Относительная влажность воздуха - влажноcть воздуха, измеренная на высоте 2 м над землей.
Te - Эффективная температура - температура, которую ощущает одетый по сезону человек в тени. Характеристика душности погоды. При расчете учитывается влияние влажности воздуха и скорости ветра на теплоощущения человека.
Tes - Эффективная температура на солнце - температура, которую ощущает человек, с поправкой на солнечный нагрев. Характеристика знойности погоды. Зависит от высоты солнца над горизонтом, облачности и скорости ветра. Ночью, в пасмурную погоду, а также при ветре 12 м/с и более поправка равна нулю.
P - Атмосферное давление - приведенное к уровню моря атмосферное давление.
Po - Атмосферное давление - измеренное на уровне метеостанции атмосферное давление.
Tmin - Минимальная температура - минимум температуры воздуха на высоте 2 м над землей.
Tmax - Максимальная температура - максимум температуры воздуха на высоте 2 м над землей.
R - Количество осадков - Количество выпавших осадков за период времени, мм. При наведении курсора мыши на число - период времени, за который выпало указанное количество осадков.
R24 - Количество осадков - Количество выпавших осадков за 24 часа, мм.
S - Снежный покров - Высота снежного покрова, см. При наведении курсора мыши на число - состояние снежного покрова и степень покрытия местности в баллах.